COSMOS 567

导读

COSMOS 567是前苏联(归属独联体CIS)发射的“宇宙”系列无人卫星,于1973年6月8日08:00发射入轨。“宇宙”系列卫星承担多类任务,涵盖科学研究、空间技术试验与军事应用等方向,冷战时期常为苏联航天任务提供平台支持。作为该系列早期成员,COSMOS 567服务于航天技术验证或空间环境探测,是苏联早期航天探索的典型载体,推动了当时空间技术的积累与发展。

基本信息
目录编号:
6678
目录名称:
COSMOS 567
国际标识:
1973-037D
轨道中心:
EARTH
卫星名称:
COSMOS 567
卫星全名:
--
卫星状态:
在轨 (已飞行19453 天)
发射日期:
1973-06-08 UTC
国别 :
俄罗斯(独联体) (CIS)
星等 :
--
轨道信息
数据来源 国际轨道数据 AOE轨道数据
星历时间 2026-09-10T21:24:37+0800
14小时前
查看轨道信息
2026-09-10T06:00:00+0800
1天前
查看轨道信息
半长轴 7825.496km 7825.495km
偏心率 0.0045444 0.0045299
轨道倾角 74.023° 74.023°
近地点辐角 210.887° 211.840°
升交点赤经 3.910° 4.769°
平近点角 160.878° 141.980°
近地点 1411.796km 1411.909km
远地点 1482.922km 1482.807km
周期 114.823分钟 114.823分钟
每日圈数 12.541082 12.541083
详细信息
使用方式:
暂无
2D轨道图
3D轨道图
轨道高度分析图
轨道倾角分析图
轨道综合分析图
查看轨道综合分析图
交会数据列表
事件ID 空间交会对象 最接近时刻(TCA) 交会距离 交会风险概率(CRP) 交会风险指数(CRI) 操作
CDM_260911-210200-667803-719025
2026-09-11T
21:02:35+0000
0.605 km
远距离
1.154925E-4 高风险 0.76
与全量物体交会距离演化趋势
与全量物体交会风险概率演化趋势